Time,TemperatureF,DewpointF,PressureIn,WindDirection,WindDirectionDegrees,WindSpeedMPH,WindSpeedGustMPH,Humidity,HourlyPrecipIn,Conditions,Clouds,dailyrainin,SoftwareType,DateUTC
2013-02-06 00:01:00,55.0,54.0,30.01,SE,133,0.0,1.0,97,0.00,,,0.12,,2013-02-06 06:01:00,
2013-02-06 00:11:00,55.0,54.0,30.01,SE,133,0.0,1.0,97,0.00,,,0.12,,2013-02-06 06:11:00,
2013-02-06 00:22:00,55.0,54.0,30.01,East,91,0.0,0.0,98,0.00,,,0.12,,2013-02-06 06:22:00,
2013-02-06 00:32:00,55.0,54.0,30.01,East,91,0.0,0.0,98,0.00,,,0.12,,2013-02-06 06:32:00,
2013-02-06 00:42:00,55.0,54.0,30.01,East,91,0.0,0.0,98,0.00,,,0.12,,2013-02-06 06:42:00,
2013-02-06 00:51:00,54.0,53.0,30.01,East,101,0.0,1.0,98,0.00,,,0.12,,2013-02-06 06:51:00,
2013-02-06 01:02:00,54.0,53.0,30.01,SE,133,0.0,1.0,97,0.00,,,0.12,,2013-02-06 07:02:00,
2013-02-06 01:11:00,54.0,53.0,30.01,SE,133,0.0,1.0,97,0.00,,,0.12,,2013-02-06 07:11:00,
2013-02-06 01:22:00,54.0,53.0,30.01,East,82,0.0,1.0,98,0.00,,,0.12,,2013-02-06 07:22:00,
2013-02-06 01:32:00,54.0,53.0,30.01,East,82,0.0,1.0,98,0.00,,,0.12,,2013-02-06 07:32:00,
2013-02-06 01:42:00,54.0,53.0,30.01,East,82,0.0,1.0,98,0.00,,,0.12,,2013-02-06 07:42:00,
2013-02-06 01:51:00,53.0,52.0,30.02,East,90,0.0,1.0,98,0.00,,,0.12,,2013-02-06 07:51:00,
2013-02-06 02:01:00,53.0,52.0,30.02,SE,134,0.0,1.0,98,0.00,,,0.12,,2013-02-06 08:01:00,
2013-02-06 02:11:00,53.0,52.0,30.02,SE,134,0.0,1.0,98,0.00,,,0.12,,2013-02-06 08:11:00,
2013-02-06 02:21:00,53.0,52.0,30.02,East,85,0.0,2.0,98,0.00,,,0.12,,2013-02-06 08:21:00,
2013-02-06 02:32:00,53.0,52.0,30.03,East,86,0.0,2.0,98,0.00,,,0.11,,2013-02-06 08:32:00,
2013-02-06 02:42:00,53.0,52.0,30.03,East,86,0.0,2.0,98,0.00,,,0.11,,2013-02-06 08:42:00,
2013-02-06 02:53:00,53.0,52.0,30.02,East,89,0.0,1.0,98,0.00,,,0.11,,2013-02-06 08:53:00,
2013-02-06 03:02:00,53.0,52.0,30.02,ENE,67,0.0,1.0,98,0.00,,,0.11,,2013-02-06 09:02:00,
2013-02-06 03:11:00,53.0,52.0,30.02,ENE,67,0.0,1.0,98,0.00,,,0.11,,2013-02-06 09:11:00,
2013-02-06 03:22:00,53.0,52.0,30.02,East,83,0.0,1.0,98,0.00,,,0.11,,2013-02-06 09:22:00,
2013-02-06 03:32:00,53.0,52.0,30.03,East,83,0.0,0.0,98,0.00,,,0.10,,2013-02-06 09:32:00,
2013-02-06 03:42:00,53.0,52.0,30.03,East,83,0.0,0.0,98,0.00,,,0.10,,2013-02-06 09:42:00,
2013-02-06 03:52:00,53.0,52.0,30.03,WSW,254,0.0,1.0,98,0.00,,,0.10,,2013-02-06 09:52:00,
2013-02-06 04:01:00,53.0,52.0,30.03,South,191,0.0,0.0,98,0.00,,,0.10,,2013-02-06 10:01:00,
2013-02-06 04:11:00,53.0,52.0,30.03,South,191,0.0,0.0,98,0.00,,,0.10,,2013-02-06 10:11:00,
2013-02-06 04:22:00,53.0,52.0,30.03,South,180,0.0,0.0,98,0.00,,,0.10,,2013-02-06 10:22:00,
2013-02-06 04:32:00,53.0,52.0,30.04,ESE,107,0.0,1.0,98,0.00,,,0.07,,2013-02-06 10:32:00,
2013-02-06 04:42:00,53.0,52.0,30.04,ESE,107,0.0,1.0,98,0.00,,,0.07,,2013-02-06 10:42:00,
2013-02-06 04:52:00,53.0,52.0,30.04,ESE,113,0.0,1.0,98,0.00,,,0.07,,2013-02-06 10:52:00,
2013-02-06 05:01:00,53.0,52.0,30.04,ESE,113,0.0,1.0,98,0.00,,,0.07,,2013-02-06 11:01:00,
2013-02-06 05:11:00,53.0,52.0,30.04,ESE,113,0.0,1.0,98,0.00,,,0.07,,2013-02-06 11:11:00,
2013-02-06 05:22:00,53.0,52.0,30.04,ESE,118,0.0,0.0,98,0.00,,,0.07,,2013-02-06 11:22:00,
2013-02-06 05:32:00,53.0,52.0,30.04,East,90,0.0,1.0,98,0.00,,,0.06,,2013-02-06 11:32:00,
2013-02-06 05:42:00,53.0,52.0,30.04,East,90,0.0,1.0,98,0.00,,,0.06,,2013-02-06 11:42:00,
2013-02-06 05:52:00,53.0,52.0,30.05,East,85,0.0,0.0,98,0.01,,,0.07,,2013-02-06 11:52:00,
2013-02-06 06:02:00,53.0,52.0,30.06,ESE,118,0.0,0.0,98,0.01,,,0.07,,2013-02-06 12:02:00,
2013-02-06 06:12:00,53.0,52.0,30.06,ESE,118,0.0,0.0,98,0.01,,,0.07,,2013-02-06 12:12:00,
2013-02-06 06:22:00,53.0,52.0,30.06,ESE,115,0.0,2.0,98,0.01,,,0.07,,2013-02-06 12:22:00,
2013-02-06 06:32:00,54.0,53.0,30.07,ESE,103,0.0,1.0,98,0.01,,,0.04,,2013-02-06 12:32:00,
2013-02-06 06:42:00,54.0,53.0,30.07,ESE,103,0.0,1.0,98,0.01,,,0.04,,2013-02-06 12:42:00,
2013-02-06 06:52:00,53.0,52.0,30.08,East,86,0.0,1.0,98,0.00,,,0.04,,2013-02-06 12:52:00,
2013-02-06 07:02:00,53.0,52.0,30.09,East,86,0.0,0.0,98,0.00,,,0.04,,2013-02-06 13:02:00,
2013-02-06 07:12:00,53.0,52.0,30.09,East,86,0.0,0.0,98,0.00,,,0.04,,2013-02-06 13:12:00,
2013-02-06 07:22:00,53.0,52.0,30.09,East,89,0.0,1.0,98,0.00,,,0.04,,2013-02-06 13:22:00,
2013-02-06 07:32:00,53.0,52.0,30.09,East,89,0.0,1.0,98,0.00,,,0.04,,2013-02-06 13:32:00,
2013-02-06 07:42:00,53.0,52.0,30.09,East,89,0.0,1.0,98,0.00,,,0.04,,2013-02-06 13:42:00,
2013-02-06 07:52:00,53.0,52.0,30.10,SW,235,0.0,1.0,98,0.00,,,0.04,,2013-02-06 13:52:00,
2013-02-06 08:02:00,53.0,52.0,30.10,ENE,74,0.0,2.0,98,0.00,,,0.04,,2013-02-06 14:02:00,
2013-02-06 08:11:00,53.0,52.0,30.10,ENE,74,0.0,2.0,98,0.00,,,0.04,,2013-02-06 14:11:00,
2013-02-06 08:22:00,53.0,52.0,30.10,ESE,113,1.0,3.0,98,0.00,,,0.04,,2013-02-06 14:22:00,
2013-02-06 08:32:00,53.0,52.0,30.10,ENE,71,0.0,4.0,98,0.00,,,0.04,,2013-02-06 14:32:00,
2013-02-06 08:42:00,53.0,52.0,30.10,ENE,71,0.0,4.0,98,0.00,,,0.04,,2013-02-06 14:42:00,
2013-02-06 08:52:00,54.0,53.0,30.10,ESE,115,0.0,3.0,98,0.00,,,0.04,,2013-02-06 14:52:00,
2013-02-06 09:02:00,55.0,54.0,30.11,ENE,60,0.0,1.0,98,0.00,,,0.04,,2013-02-06 15:02:00,
2013-02-06 09:11:00,55.0,54.0,30.11,ENE,60,0.0,1.0,98,0.00,,,0.04,,2013-02-06 15:11:00,
2013-02-06 09:21:00,55.0,54.0,30.11,East,101,0.0,3.0,98,0.00,,,0.04,,2013-02-06 15:21:00,
2013-02-06 09:32:00,55.0,54.0,30.11,East,91,1.0,2.0,98,0.00,,,0.04,,2013-02-06 15:32:00,
2013-02-06 09:42:00,55.0,54.0,30.11,East,91,1.0,2.0,98,0.00,,,0.04,,2013-02-06 15:42:00,
2013-02-06 09:52:00,55.0,54.0,30.11,ENE,64,2.0,3.0,98,0.00,,,0.04,,2013-02-06 15:52:00,
2013-02-06 10:01:00,55.0,54.0,30.11,ENE,64,2.0,3.0,98,0.00,,,0.04,,2013-02-06 16:01:00,
2013-02-06 10:11:00,55.0,54.0,30.11,ENE,64,2.0,3.0,98,0.00,,,0.04,,2013-02-06 16:11:00,
2013-02-06 10:22:00,57.0,56.0,30.11,East,82,0.0,2.0,98,0.00,,,0.04,,2013-02-06 16:22:00,
2013-02-06 10:32:00,57.0,56.0,30.11,SE,139,1.0,3.0,98,0.00,,,0.02,,2013-02-06 16:32:00,
2013-02-06 10:42:00,57.0,56.0,30.11,SE,139,1.0,3.0,98,0.00,,,0.02,,2013-02-06 16:42:00,
2013-02-06 10:52:00,58.0,57.0,30.11,ENE,71,1.0,3.0,97,0.00,,,0.02,,2013-02-06 16:52:00,
2013-02-06 11:02:00,60.0,59.0,30.12,SE,139,1.0,4.0,96,0.00,,,0.02,,2013-02-06 17:02:00,
2013-02-06 11:12:00,60.0,59.0,30.12,SE,139,1.0,4.0,96,0.00,,,0.02,,2013-02-06 17:12:00,
2013-02-06 11:22:00,63.0,59.0,30.12,ESE,120,0.0,2.0,87,0.00,,,0.02,,2013-02-06 17:22:00,
2013-02-06 11:32:00,65.0,59.0,30.11,East,101,1.0,4.0,81,0.00,,,0.02,,2013-02-06 17:32:00,
2013-02-06 11:52:00,65.0,59.0,30.11,SSE,155,1.0,4.0,80,0.00,,,0.02,,2013-02-06 17:52:00,
2013-02-06 12:02:00,65.0,58.0,30.10,SE,142,2.0,4.0,78,0.00,,,0.02,,2013-02-06 18:02:00,
2013-02-06 12:12:00,65.0,58.0,30.10,SE,142,2.0,4.0,78,0.00,,,0.02,,2013-02-06 18:12:00,
2013-02-06 12:23:00,65.0,57.0,30.09,ESE,122,4.0,7.0,76,0.00,,,0.02,,2013-02-06 18:23:00,
2013-02-06 12:32:00,67.0,60.0,30.08,ENE,63,1.0,5.0,77,0.00,,,0.02,,2013-02-06 18:32:00,
2013-02-06 12:52:00,67.0,58.0,30.08,ENE,61,1.0,8.0,73,0.00,,,0.02,,2013-02-06 18:52:00,
2013-02-06 13:02:00,68.0,57.0,30.07,ESE,110,4.0,7.0,69,0.00,,,0.02,,2013-02-06 19:02:00,
2013-02-06 13:11:00,68.0,57.0,30.07,ESE,110,4.0,7.0,69,0.00,,,0.02,,2013-02-06 19:11:00,
2013-02-06 13:22:00,69.0,58.0,30.06,SE,127,3.0,7.0,68,0.00,,,0.02,,2013-02-06 19:22:00,
2013-02-06 13:32:00,69.0,58.0,30.06,SE,146,1.0,5.0,67,0.00,,,0.02,,2013-02-06 19:32:00,
2013-02-06 13:42:00,69.0,58.0,30.06,SE,146,1.0,5.0,67,0.00,,,0.02,,2013-02-06 19:42:00,
2013-02-06 13:52:00,69.0,58.0,30.06,South,173,2.0,5.0,69,0.00,,,0.02,,2013-02-06 19:52:00,
2013-02-06 14:01:00,71.0,59.0,30.05,SE,145,1.0,8.0,67,0.00,,,0.02,,2013-02-06 20:01:00,
2013-02-06 14:11:00,71.0,59.0,30.05,SE,145,1.0,8.0,67,0.00,,,0.02,,2013-02-06 20:11:00,
2013-02-06 14:21:00,72.0,58.0,30.05,SSW,203,2.0,4.0,62,0.00,,,0.02,,2013-02-06 20:21:00,
2013-02-06 14:32:00,71.0,57.0,30.05,NE,50,2.0,6.0,61,0.00,,,0.02,,2013-02-06 20:32:00,
2013-02-06 14:42:00,71.0,57.0,30.05,NE,50,2.0,6.0,61,0.00,,,0.02,,2013-02-06 20:42:00,
2013-02-06 14:52:00,71.0,57.0,30.05,SSE,152,0.0,5.0,61,0.00,,,0.02,,2013-02-06 20:52:00,
2013-02-06 15:02:00,72.0,56.0,30.04,East,101,3.0,6.0,58,0.00,,,0.02,,2013-02-06 21:02:00,
2013-02-06 15:11:00,72.0,56.0,30.04,East,101,3.0,6.0,58,0.00,,,0.02,,2013-02-06 21:11:00,
2013-02-06 15:21:00,71.0,56.0,30.04,ENE,68,0.0,5.0,60,0.00,,,0.02,,2013-02-06 21:21:00,
2013-02-06 15:32:00,71.0,55.0,30.03,ENE,76,1.0,7.0,58,0.00,,,0.01,,2013-02-06 21:32:00,
2013-02-06 15:42:00,71.0,55.0,30.03,ENE,76,1.0,7.0,58,0.00,,,0.01,,2013-02-06 21:42:00,
2013-02-06 15:52:00,71.0,55.0,30.03,ENE,71,2.0,8.0,58,0.00,,,0.01,,2013-02-06 21:52:00,
2013-02-06 16:01:00,70.0,55.0,30.03,SSE,148,1.0,6.0,60,0.00,,,0.01,,2013-02-06 22:01:00,
2013-02-06 16:11:00,70.0,55.0,30.03,SSE,148,1.0,6.0,60,0.00,,,0.01,,2013-02-06 22:11:00,
2013-02-06 16:22:00,70.0,55.0,30.03,NE,55,1.0,4.0,60,0.00,,,0.01,,2013-02-06 22:22:00,
2013-02-06 16:32:00,69.0,55.0,30.02,East,83,2.0,5.0,62,0.00,,,0.01,,2013-02-06 22:32:00,
2013-02-06 16:42:00,69.0,55.0,30.02,East,83,2.0,5.0,62,0.00,,,0.01,,2013-02-06 22:42:00,
2013-02-06 16:52:00,69.0,55.0,30.02,ESE,114,1.0,3.0,62,0.00,,,0.01,,2013-02-06 22:52:00,
2013-02-06 17:01:00,69.0,55.0,30.02,ESE,114,1.0,3.0,62,0.00,,,0.01,,2013-02-06 23:01:00,
2013-02-06 17:11:00,69.0,55.0,30.02,ESE,114,1.0,3.0,62,0.00,,,0.01,,2013-02-06 23:11:00,
2013-02-06 17:21:00,68.0,57.0,30.02,SE,145,0.0,0.0,69,0.00,,,0.01,,2013-02-06 23:21:00,
2013-02-06 17:32:00,65.0,56.0,30.02,SE,145,0.0,0.0,74,0.00,,,0.01,,2013-02-06 23:32:00,
2013-02-06 17:42:00,65.0,56.0,30.02,SE,145,0.0,0.0,74,0.00,,,0.01,,2013-02-06 23:42:00,
2013-02-06 17:52:00,62.0,55.0,30.02,SE,145,0.0,0.0,79,0.00,,,0.01,,2013-02-06 23:52:00,
2013-02-06 18:02:00,61.0,56.0,30.02,SE,145,0.0,0.0,83,0.00,,,0.01,,2013-02-07 00:02:00,
2013-02-06 18:11:00,61.0,56.0,30.02,SE,145,0.0,0.0,83,0.00,,,0.01,,2013-02-07 00:11:00,
2013-02-06 18:22:00,59.0,54.0,30.03,SSE,147,0.0,0.0,85,0.00,,,0.01,,2013-02-07 00:22:00,
2013-02-06 18:32:00,59.0,55.0,30.03,SE,146,0.0,0.0,87,0.00,,,0.01,,2013-02-07 00:32:00,
2013-02-06 18:42:00,59.0,55.0,30.03,SE,146,0.0,0.0,87,0.00,,,0.01,,2013-02-07 00:42:00,
2013-02-06 18:52:00,58.0,54.0,30.03,SE,146,0.0,0.0,88,0.00,,,0.01,,2013-02-07 00:52:00,
2013-02-06 19:01:00,57.0,54.0,30.04,SE,146,0.0,0.0,89,0.00,,,0.01,,2013-02-07 01:01:00,
2013-02-06 19:11:00,57.0,54.0,30.04,SE,146,0.0,0.0,89,0.00,,,0.01,,2013-02-07 01:11:00,
2013-02-06 19:21:00,57.0,54.0,30.04,SE,146,0.0,0.0,90,0.00,,,0.01,,2013-02-07 01:21:00,
2013-02-06 19:32:00,56.0,54.0,30.04,SE,146,0.0,0.0,92,0.00,,,0.01,,2013-02-07 01:32:00,
2013-02-06 19:42:00,56.0,54.0,30.04,SE,146,0.0,0.0,92,0.00,,,0.01,,2013-02-07 01:42:00,
2013-02-06 19:52:00,56.0,54.0,30.04,SSW,197,0.0,0.0,92,0.00,,,0.01,,2013-02-07 01:52:00,
2013-02-06 20:02:00,56.0,54.0,30.04,SSW,197,0.0,0.0,92,0.00,,,0.01,,2013-02-07 02:02:00,
2013-02-06 20:12:00,56.0,54.0,30.04,SSW,197,0.0,0.0,92,0.00,,,0.01,,2013-02-07 02:12:00,
2013-02-06 20:21:00,56.0,54.0,30.03,ENE,74,0.0,1.0,93,0.00,,,0.01,,2013-02-07 02:21:00,
2013-02-06 20:32:00,56.0,54.0,30.04,ENE,78,0.0,1.0,93,0.00,,,0.01,,2013-02-07 02:32:00,
2013-02-06 20:42:00,56.0,54.0,30.04,ENE,78,0.0,1.0,93,0.00,,,0.01,,2013-02-07 02:42:00,
2013-02-06 20:51:00,56.0,54.0,30.04,ENE,78,0.0,1.0,93,0.00,,,0.01,,2013-02-07 02:51:00,
2013-02-06 21:02:00,56.0,54.0,30.04,ENE,78,0.0,1.0,93,0.00,,,0.01,,2013-02-07 03:02:00,
2013-02-06 21:11:00,56.0,54.0,30.04,ENE,78,0.0,1.0,93,0.00,,,0.01,,2013-02-07 03:11:00,
2013-02-06 21:21:00,55.0,53.0,30.04,ENE,78,0.0,0.0,93,0.00,,,0.01,,2013-02-07 03:21:00,
2013-02-06 21:32:00,55.0,54.0,30.03,ENE,78,0.0,0.0,95,0.00,,,0.01,,2013-02-07 03:32:00,
2013-02-06 21:42:00,55.0,54.0,30.03,ENE,78,0.0,0.0,95,0.00,,,0.01,,2013-02-07 03:42:00,
2013-02-06 21:52:00,55.0,54.0,30.03,ENE,77,0.0,0.0,95,0.00,,,0.01,,2013-02-07 03:52:00,
2013-02-06 22:01:00,54.0,52.0,30.03,ENE,78,0.0,0.0,94,0.00,,,0.01,,2013-02-07 04:01:00,
2013-02-06 22:11:00,54.0,52.0,30.03,ENE,78,0.0,0.0,94,0.00,,,0.01,,2013-02-07 04:11:00,
2013-02-06 22:22:00,54.0,53.0,30.03,ENE,78,0.0,0.0,95,0.00,,,0.01,,2013-02-07 04:22:00,
2013-02-06 22:32:00,54.0,53.0,30.01,ENE,77,0.0,1.0,95,0.00,,,0.01,,2013-02-07 04:32:00,
2013-02-06 22:42:00,54.0,53.0,30.01,ENE,77,0.0,1.0,95,0.00,,,0.01,,2013-02-07 04:42:00,
2013-02-06 22:53:00,54.0,53.0,30.02,East,79,0.0,1.0,95,0.00,,,0.01,,2013-02-07 04:53:00,
2013-02-06 23:02:00,54.0,53.0,30.01,East,79,0.0,1.0,96,0.00,,,0.01,,2013-02-07 05:02:00,
2013-02-06 23:12:00,54.0,53.0,30.01,East,79,0.0,1.0,96,0.00,,,0.01,,2013-02-07 05:12:00,
2013-02-06 23:21:00,54.0,53.0,30.02,East,79,0.0,0.0,95,0.00,,,0.01,,2013-02-07 05:21:00,
2013-02-06 23:32:00,53.0,52.0,30.02,East,79,0.0,0.0,96,0.00,,,0.01,,2013-02-07 05:32:00,
2013-02-06 23:42:00,53.0,52.0,30.02,East,79,0.0,0.0,96,0.00,,,0.01,,2013-02-07 05:42:00,
2013-02-06 23:52:00,54.0,53.0,30.02,East,79,0.0,0.0,96,0.00,,,0.01,,2013-02-07 05:52:00,